User: anonymous   Login
Location: Unspecified
(0.0000°N, 0.0000°E)
Time: 00:07:30
(UTC+00:00)
Language:

STARLINK-32322 - Orbit

View from above orbital plane
View from above orbital plane
View from above satellite
View from above satellite

Ground track
Ground track

The orbit is defined by the following mean orbital elements,

1 61720U          26145.18286631 +.00000000 +00000-0 +10831-3 0 00008
2 61720  53.1602 106.3500 0001479 103.4756 256.6410 15.30193318    05
Epoch (UTC): 25 May 2026 04:23:19
Eccentricity: 0.0001479
inclination: 53.1602°
perigee height: 474 km
apogee height: 476 km
right ascension of ascending node: 106.3500°
argument of perigee: 103.4756°
revolutions per day: 15.30193318
mean anomaly at epoch: 256.6410°

The dashed part of the orbit path shows where the satellite is in the earth's shadow,  

DLR